QPF
0.01 0.00 0.00 0.01 0.01 0.00 0.01 0.02 0.02 0.01 0.01 0.01 0.01 0.01 0.01 0.01 0.01 0.01 0.02 0.01 0.01 0.02 0.02 0.03 0.05 0.08 0.12 0.14 0.10 0.09 0.08 0.07 0.08 0.09 0.09 0.07 0.07 0.06 0.06 0.06 0.09 0.11 0.14 0.14
0.01 0.00 0.00 0.00 0.00 0.00 0.01 0.01 0.01 0.01 0.01 0.01 0.00 0.00 0.01 0.01 0.01 0.01 0.01 0.01 0.01 0.01 0.01 0.02 0.05 0.06 0.08 0.12 0.12 0.09 0.08 0.08 0.07 0.08 0.08 0.09 0.08 0.07 0.06 0.07 0.09 0.12 0.14 0.15
0.02 0.00 0.01 0.01 0.00 0.00 0.00 0.00 0.01 0.01 0.01 0.01 0.00 0.00 0.01 0.01 0.01 0.01 0.01 0.01 0.01 0.01 0.01 0.01 0.04 0.05 0.05 0.07 0.09 0.08 0.07 0.07 0.08 0.09 0.09 0.10 0.09 0.09 0.08 0.08 0.08 0.09 0.12 0.16
0.04 0.02 0.02 0.01 0.00 0.00 0.00 0.00 0.00 0.01 0.01 0.01 0.00 0.00 0.00 0.01 0.01 0.01 0.01 0.01 0.01 0.01 0.00 0.01 0.02 0.03 0.03 0.05 0.06 0.06 0.06 0.06 0.06 0.08 0.09 0.11 0.11 0.10 0.08 0.08 0.09 0.08 0.08 0.10
0.07 0.04 0.01 0.00 0.00 0.00 0.00 0.00 0.00 0.00 0.00 0.00 0.00 0.00 0.00 0.00 0.01 0.01 0.01 0.01 0.01 0.01 0.00 0.00 0.01 0.02 0.03 0.04 0.04 0.04 0.04 0.05 0.05 0.05 0.05 0.08 0.10 0.10 0.09 0.08 0.07 0.08 0.08 0.08
0.07 0.05 0.01 0.00 0.00 0.00 0.00 0.00 0.00 0.00 0.00 0.00 0.00 0.00 0.00 0.00 0.00 0.00 0.01 0.01 0.01 0.01 0.01 0.01 0.01 0.02 0.04 0.05 0.03 0.02 0.03 0.04 0.04 0.04 0.05 0.05 0.07 0.08 0.08 0.09 0.08 0.07 0.07 0.08
0.05 0.04 0.01 0.00 0.00 0.00 0.00 0.00 0.00 0.00 0.01 0.01 0.00 0.00 0.00 0.00 0.00 0.00 0.00 0.00 0.00 0.01 0.01 0.01 0.02 0.03 0.05 0.05 0.03 0.03 0.03 0.03 0.03 0.03 0.03 0.04 0.06 0.06 0.06 0.07 0.07 0.08 0.07 0.07
0.02 0.04 0.01 0.00 0.00 0.00 0.00 0.00 0.00 0.00 0.00 0.00 0.00 0.00 0.00 0.00 0.00 0.00 0.00 0.00 0.00 0.00 0.00 0.01 0.01 0.02 0.04 0.04 0.03 0.03 0.03 0.03 0.02 0.02 0.02 0.03 0.03 0.03 0.05 0.06 0.07 0.07 0.08 0.08
0.01 0.01 0.00 0.00 0.00 0.00 0.00 0.00 0.00 0.00 0.00 0.00 0.00 0.00 0.00 0.00 0.00 0.00 0.00 0.00 0.00 0.00 0.00 0.00 0.01 0.02 0.03 0.03 0.03 0.02 0.02 0.02 0.02 0.01 0.02 0.02 0.03 0.03 0.04 0.05 0.06 0.07 0.08 0.09
0.00 0.00 0.00 0.00 0.00 0.00 0.00 0.00 0.00 0.00 0.00 0.00 0.00 0.00 0.00 0.00 0.00 0.00 0.00 0.00 0.00 0.00 0.00 0.00 0.00 0.01 0.02 0.02 0.02 0.02 0.02 0.02 0.02 0.02 0.03 0.03 0.03 0.04 0.04 0.06 0.06 0.06 0.08 0.09
0.00 0.00 0.00 0.00 0.00 0.00 0.00 0.00 0.00 0.00 0.00 0.00 0.00 0.00 0.00 0.00 0.00 0.00 0.00 0.00 0.00 0.00 0.00 0.00 0.00 0.00 0.01 0.01 0.01 0.02 0.02 0.02 0.03 0.02 0.03 0.03 0.03 0.04 0.06 0.07 0.06 0.06 0.06 0.07
0.00 0.00 0.00 0.00 0.00 0.00 0.00 0.00 0.00 0.00 0.00 0.00 0.00 0.00 0.00 0.00 0.00 0.00 0.00 0.00 0.00 0.00 0.00 0.00 0.00 0.00 0.01 0.01 0.01 0.01 0.02 0.02 0.03 0.03 0.03 0.04 0.04 0.05 0.06 0.07 0.06 0.05 0.05 0.06
0.00 0.00 0.00 0.00 0.00 0.00 0.00 0.00 0.00 0.00 0.00 0.00 0.00 0.00 0.00 0.00 0.00 0.00 0.00 0.00 0.00 0.00 0.00 0.00 0.00 0.00 0.01 0.01 0.01 0.01 0.02 0.03 0.03 0.03 0.04 0.04 0.05 0.06 0.07 0.08 0.07 0.06 0.06 0.07
0.00 0.01 0.01 0.01 0.00 0.00 0.00 0.00 0.00 0.00 0.00 0.00 0.00 0.00 0.00 0.00 0.00 0.00 0.00 0.00 0.00 0.00 0.00 0.00 0.00 0.00 0.00 0.01 0.01 0.01 0.02 0.03 0.04 0.04 0.04 0.04 0.05 0.06 0.07 0.09 0.10 0.09 0.08 0.09
0.01 0.01 0.01 0.01 0.01 0.01 0.01 0.00 0.00 0.00 0.00 0.00 0.00 0.00 0.00 0.00 0.00 0.00 0.00 0.00 0.00 0.00 0.00 0.00 0.00 0.00 0.00 0.01 0.01 0.01 0.02 0.03 0.05 0.05 0.04 0.04 0.05 0.05 0.07 0.08 0.09 0.09 0.10 0.12
0.01 0.01 0.01 0.01 0.00 0.00 0.00 0.00 0.00 0.00 0.00 0.00 0.00 0.00 0.00 0.00 0.00 0.00 0.00 0.00 0.00 0.00 0.00 0.00 0.00 0.00 0.00 0.01 0.01 0.01 0.02 0.02 0.04 0.04 0.04 0.04 0.05 0.06 0.07 0.07 0.07 0.08 0.10 0.13
0.00 0.00 0.00 0.00 0.00 0.00 0.00 0.00 0.00 0.00 0.00 0.00 0.00 0.00 0.00 0.00 0.00 0.00 0.00 0.00 0.00 0.00 0.00 0.00 0.00 0.00 0.01 0.01 0.02 0.01 0.02 0.02 0.03 0.04 0.04 0.03 0.04 0.05 0.06 0.07 0.07 0.08 0.09 0.11
0.00 0.00 0.00 0.00 0.00 0.00 0.00 0.00 0.00 0.00 0.00 0.00 0.00 0.01 0.00 0.00 0.00 0.00 0.00 0.00 0.00 0.00 0.00 0.00 0.00 0.00 0.01 0.01 0.01 0.01 0.02 0.02 0.02 0.03 0.03 0.03 0.03 0.04 0.04 0.05 0.06 0.07 0.08 0.10
0.00 0.00 0.00 0.00 0.00 0.00 0.00 0.00 0.00 0.00 0.00 0.00 0.01 0.01 0.00 0.00 0.01 0.00 0.00 0.00 0.00 0.00 0.00 0.00 0.00 0.00 0.01 0.01 0.01 0.02 0.02 0.02 0.02 0.03 0.03 0.03 0.04 0.04 0.04 0.04 0.05 0.05 0.06 0.07
0.00 0.00 0.00 0.01 0.01 0.01 0.00 0.00 0.00 0.00 0.01 0.01 0.01 0.01 0.01 0.00 0.01 0.00 0.00 0.00 0.00 0.00 0.00 0.00 0.00 0.00 0.01 0.01 0.02 0.02 0.02 0.02 0.02 0.03 0.03 0.03 0.04 0.03 0.03 0.04 0.05 0.06 0.05 0.06
0.00 0.00 0.00 0.00 0.01 0.01 0.01 0.00 0.00 0.00 0.01 0.01 0.01 0.01 0.01 0.01 0.01 0.01 0.01 0.01 0.01 0.00 0.00 0.00 0.00 0.00 0.01 0.02 0.02 0.02 0.02 0.02 0.02 0.03 0.03 0.04 0.04 0.03 0.03 0.04 0.05 0.06 0.06 0.06
0.00 0.00 0.00 0.00 0.00 0.00 0.00 0.00 0.00 0.01 0.01 0.01 0.01 0.01 0.01 0.01 0.01 0.01 0.01 0.01 0.01 0.01 0.01 0.00 0.00 0.01 0.02 0.03 0.03 0.03 0.02 0.02 0.03 0.03 0.04 0.04 0.04 0.03 0.03 0.03 0.04 0.05 0.05 0.06
0.00 0.00 0.00 0.00 0.00 0.00 0.00 0.00 0.00 0.01 0.01 0.01 0.01 0.01 0.01 0.01 0.01 0.01 0.01 0.01 0.01 0.01 0.01 0.01 0.01 0.01 0.02 0.02 0.03 0.03 0.02 0.02 0.03 0.03 0.04 0.04 0.04 0.04 0.03 0.03 0.04 0.05 0.06 0.06
0.00 0.00 0.00 0.01 0.00 0.00 0.00 0.01 0.01 0.01 0.01 0.01 0.01 0.01 0.01 0.01 0.01 0.01 0.01 0.01 0.01 0.01 0.01 0.01 0.01 0.02 0.02 0.03 0.03 0.03 0.03 0.03 0.03 0.04 0.04 0.05 0.05 0.04 0.04 0.04 0.05 0.06 0.06 0.07
0.00 0.00 0.00 0.00 0.00 0.00 0.01 0.01 0.01 0.01 0.01 0.01 0.01 0.01 0.01 0.01 0.01 0.01 0.00 0.01 0.01 0.01 0.01 0.01 0.01 0.01 0.02 0.02 0.03 0.03 0.03 0.03 0.04 0.04 0.04 0.05 0.05 0.05 0.04 0.05 0.05 0.06 0.06 0.07
0.01 0.01 0.00 0.01 0.01 0.01 0.01 0.01 0.01 0.01 0.01 0.01 0.01 0.01 0.01 0.01 0.01 0.01 0.01 0.01 0.01 0.01 0.01 0.01 0.01 0.02 0.02 0.02 0.02 0.02 0.02 0.02 0.03 0.03 0.03 0.04 0.04 0.04 0.04 0.05 0.05 0.06 0.07 0.07
0.01 0.01 0.01 0.01 0.01 0.01 0.01 0.01 0.01 0.01 0.01 0.01 0.01 0.01 0.01 0.01 0.01 0.01 0.01 0.01 0.01 0.01 0.01 0.02 0.02 0.02 0.02 0.02 0.02 0.02 0.02 0.02 0.02 0.02 0.03 0.03 0.03 0.04 0.04 0.05 0.05 0.06 0.07 0.08
MSLP
1010.28 1010.41 1010.44 1010.34 1010.08 1009.65 1009.07 1008.39 1007.65 1006.92 1006.27 1005.73 1005.37 1005.18 1005.17 1005.29 1005.51 1005.76 1006.01 1006.20 1006.32 1006.35 1006.30 1006.21 1006.09 1005.99 1005.92 1005.90 1005.93 1006.00 1006.11 1006.22 1006.33 1006.41 1006.46 1006.48 1006.45 1006.40 1006.32 1006.21 1006.07 1005.89 1005.67 1005.40
1010.85 1010.89 1010.79 1010.51 1010.06 1009.45 1008.72 1007.92 1007.12 1006.38 1005.76 1005.29 1005.02 1004.93 1004.99 1005.18 1005.44 1005.71 1005.95 1006.13 1006.22 1006.24 1006.18 1006.09 1005.97 1005.88 1005.82 1005.80 1005.84 1005.92 1006.02 1006.14 1006.24 1006.33 1006.39 1006.41 1006.40 1006.35 1006.27 1006.15 1005.99 1005.79 1005.54 1005.23
1011.17 1011.12 1010.87 1010.44 1009.83 1009.07 1008.23 1007.37 1006.56 1005.85 1005.30 1004.93 1004.75 1004.76 1004.90 1005.14 1005.42 1005.70 1005.92 1006.08 1006.15 1006.13 1006.06 1005.95 1005.84 1005.74 1005.68 1005.66 1005.69 1005.75 1005.85 1005.95 1006.06 1006.15 1006.22 1006.26 1006.27 1006.24 1006.17 1006.05 1005.89 1005.68 1005.41 1005.09
1011.19 1011.03 1010.67 1010.11 1009.38 1008.54 1007.66 1006.79 1006.02 1005.39 1004.93 1004.67 1004.60 1004.69 1004.89 1005.17 1005.46 1005.72 1005.92 1006.04 1006.07 1006.03 1005.94 1005.82 1005.69 1005.58 1005.50 1005.47 1005.47 1005.51 1005.58 1005.67 1005.77 1005.86 1005.95 1006.01 1006.04 1006.03 1005.99 1005.89 1005.73 1005.52 1005.24 1004.91
1010.88 1010.64 1010.18 1009.54 1008.76 1007.90 1007.04 1006.24 1005.55 1005.03 1004.69 1004.54 1004.55 1004.71 1004.95 1005.22 1005.49 1005.72 1005.88 1005.95 1005.95 1005.88 1005.77 1005.64 1005.50 1005.38 1005.28 1005.22 1005.19 1005.20 1005.23 1005.30 1005.37 1005.46 1005.55 1005.63 1005.69 1005.71 1005.69 1005.61 1005.47 1005.26 1004.98 1004.65
1010.27 1009.95 1009.45 1008.78 1008.01 1007.20 1006.41 1005.72 1005.15 1004.75 1004.53 1004.47 1004.56 1004.74 1004.98 1005.23 1005.46 1005.63 1005.73 1005.76 1005.72 1005.63 1005.51 1005.37 1005.23 1005.09 1004.98 1004.89 1004.83 1004.80 1004.80 1004.82 1004.87 1004.95 1005.04 1005.13 1005.21 1005.25 1005.26 1005.20 1005.07 1004.88 1004.60 1004.27
1009.37 1009.02 1008.50 1007.86 1007.16 1006.44 1005.78 1005.22 1004.80 1004.52 1004.41 1004.42 1004.54 1004.72 1004.93 1005.12 1005.28 1005.38 1005.42 1005.40 1005.33 1005.23 1005.11 1004.97 1004.84 1004.71 1004.59 1004.48 1004.39 1004.31 1004.27 1004.26 1004.28 1004.34 1004.42 1004.51 1004.60 1004.67 1004.70 1004.66 1004.54 1004.35 1004.09 1003.76
1008.23 1007.87 1007.38 1006.82 1006.21 1005.63 1005.12 1004.71 1004.42 1004.27 1004.23 1004.29 1004.41 1004.56 1004.71 1004.83 1004.90 1004.93 1004.91 1004.85 1004.76 1004.66 1004.55 1004.44 1004.33 1004.21 1004.09 1003.97 1003.86 1003.75 1003.67 1003.62 1003.61 1003.65 1003.72 1003.81 1003.91 1003.98 1004.02 1003.99 1003.89 1003.71 1003.45 1003.13
1006.90 1006.56 1006.13 1005.66 1005.18 1004.75 1004.39 1004.13 1003.97 1003.91 1003.94 1004.02 1004.12 1004.22 1004.29 1004.33 1004.32 1004.28 1004.21 1004.12 1004.03 1003.95 1003.87 1003.79 1003.71 1003.62 1003.52 1003.40 1003.27 1003.14 1003.03 1002.95 1002.91 1002.92 1002.97 1003.06 1003.15 1003.23 1003.27 1003.25 1003.15 1002.98 1002.73 1002.42
1005.46 1005.15 1004.79 1004.43 1004.08 1003.79 1003.57 1003.44 1003.39 1003.41 1003.47 1003.56 1003.63 1003.68 1003.68 1003.65 1003.58 1003.48 1003.38 1003.29 1003.22 1003.16 1003.12 1003.09 1003.05 1002.99 1002.90 1002.79 1002.66 1002.51 1002.38 1002.28 1002.21 1002.20 1002.23 1002.30 1002.39 1002.46 1002.50 1002.48 1002.38 1002.20 1001.96 1001.66
1004.01 1003.73 1003.44 1003.16 1002.93 1002.76 1002.66 1002.64 1002.67 1002.75 1002.84 1002.92 1002.97 1002.98 1002.94 1002.86 1002.75 1002.64 1002.53 1002.45 1002.40 1002.38 1002.39 1002.40 1002.40 1002.37 1002.31 1002.21 1002.07 1001.92 1001.77 1001.65 1001.57 1001.53 1001.55 1001.60 1001.67 1001.73 1001.75 1001.72 1001.61 1001.44 1001.19 1000.91
1002.68 1002.42 1002.17 1001.97 1001.82 1001.74 1001.73 1001.78 1001.87 1001.99 1002.10 1002.18 1002.23 1002.22 1002.16 1002.07 1001.95 1001.84 1001.76 1001.70 1001.69 1001.71 1001.75 1001.80 1001.83 1001.83 1001.78 1001.69 1001.56 1001.40 1001.25 1001.11 1001.02 1000.97 1000.96 1000.99 1001.04 1001.08 1001.08 1001.03 1000.91 1000.72 1000.48 1000.20
1001.60 1001.34 1001.12 1000.96 1000.86 1000.83 1000.87 1000.97 1001.10 1001.24 1001.37 1001.47 1001.52 1001.51 1001.47 1001.39 1001.30 1001.22 1001.16 1001.14 1001.16 1001.21 1001.28 1001.35 1001.40 1001.41 1001.37 1001.28 1001.15 1000.99 1000.83 1000.69 1000.59 1000.52 1000.50 1000.51 1000.53 1000.54 1000.51 1000.43 1000.29 1000.09 999.84 999.56
1000.90 1000.64 1000.42 1000.27 1000.18 1000.18 1000.24 1000.35 1000.50 1000.66 1000.80 1000.91 1000.98 1001.01 1000.99 1000.94 1000.89 1000.84 1000.82 1000.83 1000.87 1000.94 1001.01 1001.08 1001.13 1001.13 1001.08 1000.99 1000.86 1000.70 1000.55 1000.40 1000.29 1000.22 1000.18 1000.16 1000.15 1000.12 1000.06 999.94 999.77 999.55 999.28 999.00
1000.67 1000.39 1000.17 1000.01 999.92 999.91 999.96 1000.07 1000.22 1000.38 1000.53 1000.65 1000.74 1000.79 1000.81 1000.80 1000.78 1000.76 1000.76 1000.78 1000.82 1000.88 1000.94 1000.98 1001.00 1000.98 1000.92 1000.82 1000.68 1000.52 1000.37 1000.23 1000.11 1000.03 999.97 999.93 999.88 999.81 999.71 999.56 999.35 999.10 998.81 998.52
1000.93 1000.65 1000.41 1000.24 1000.13 1000.10 1000.14 1000.22 1000.35 1000.49 1000.64 1000.76 1000.86 1000.93 1000.96 1000.97 1000.97 1000.96 1000.95 1000.96 1000.98 1001.00 1001.02 1001.02 1000.99 1000.94 1000.85 1000.73 1000.58 1000.43 1000.28 1000.14 1000.02 999.93 999.85 999.78 999.70 999.59 999.44 999.25 999.01 998.72 998.42 998.11
1001.64 1001.37 1001.13 1000.95 1000.83 1000.77 1000.77 1000.82 1000.91 1001.03 1001.14 1001.25 1001.34 1001.39 1001.42 1001.42 1001.40 1001.37 1001.34 1001.30 1001.27 1001.23 1001.18 1001.13 1001.05 1000.95 1000.83 1000.68 1000.53 1000.37 1000.22 1000.08 999.96 999.86 999.76 999.66 999.55 999.40 999.22 998.99 998.71 998.40 998.07 997.75
1002.67 1002.43 1002.22 1002.03 1001.90 1001.81 1001.78 1001.79 1001.83 1001.90 1001.97 1002.03 1002.07 1002.09 1002.08 1002.05 1001.98 1001.90 1001.81 1001.70 1001.59 1001.48 1001.36 1001.23 1001.09 1000.94 1000.79 1000.62 1000.46 1000.29 1000.14 1000.01 999.88 999.77 999.65 999.53 999.39 999.21 998.99 998.73 998.43 998.10 997.76 997.42
1003.88 1003.69 1003.50 1003.33 1003.18 1003.08 1003.00 1002.96 1002.95 1002.94 1002.95 1002.95 1002.92 1002.88 1002.80 1002.69 1002.56 1002.40 1002.23 1002.04 1001.85 1001.65 1001.45 1001.26 1001.06 1000.86 1000.67 1000.49 1000.31 1000.14 999.99 999.85 999.72 999.59 999.46 999.32 999.15 998.95 998.71 998.43 998.12 997.78 997.43 997.08
1005.08 1004.93 1004.78 1004.62 1004.47 1004.33 1004.22 1004.12 1004.04 1003.96 1003.88 1003.80 1003.69 1003.56 1003.39 1003.20 1002.98 1002.74 1002.48 1002.21 1001.93 1001.66 1001.39 1001.13 1000.88 1000.65 1000.43 1000.23 1000.04 999.87 999.72 999.57 999.43 999.29 999.15 998.99 998.80 998.59 998.34 998.06 997.74 997.41 997.06 996.72
1006.12 1006.01 1005.87 1005.71 1005.55 1005.38 1005.21 1005.05 1004.90 1004.74 1004.58 1004.40 1004.20 1003.98 1003.72 1003.44 1003.14 1002.81 1002.47 1002.12 1001.78 1001.44 1001.12 1000.82 1000.54 1000.28 1000.04 999.83 999.64 999.46 999.30 999.15 999.00 998.85 998.69 998.52 998.32 998.11 997.86 997.58 997.28 996.96 996.62 996.29
1006.91 1006.81 1006.66 1006.48 1006.28 1006.07 1005.85 1005.62 1005.39 1005.15 1004.91 1004.64 1004.35 1004.04 1003.70 1003.34 1002.96 1002.56 1002.16 1001.76 1001.36 1000.99 1000.63 1000.30 1000.00 999.74 999.49 999.28 999.08 998.91 998.74 998.58 998.43 998.27 998.10 997.92 997.72 997.50 997.26 996.99 996.71 996.40 996.09 995.76
1007.43 1007.28 1007.09 1006.87 1006.62 1006.35 1006.06 1005.77 1005.46 1005.15 1004.82 1004.47 1004.11 1003.72 1003.31 1002.89 1002.45 1002.01 1001.56 1001.12 1000.70 1000.31 999.94 999.61 999.31 999.05 998.81 998.60 998.41 998.23 998.07 997.90 997.74 997.57 997.39 997.20 997.00 996.78 996.54 996.29 996.02 995.73 995.43 995.11
1007.68 1007.46 1007.20 1006.91 1006.59 1006.24 1005.89 1005.52 1005.15 1004.76 1004.36 1003.95 1003.53 1003.08 1002.63 1002.16 1001.68 1001.21 1000.74 1000.29 999.86 999.47 999.11 998.79 998.50 998.25 998.03 997.83 997.65 997.49 997.32 997.16 996.98 996.80 996.62 996.41 996.20 995.98 995.74 995.49 995.22 994.95 994.65 994.34
1007.72 1007.41 1007.06 1006.68 1006.28 1005.86 1005.44 1005.01 1004.57 1004.12 1003.67 1003.21 1002.74 1002.25 1001.76 1001.26 1000.76 1000.27 999.80 999.34 998.92 998.54 998.20 997.89 997.63 997.40 997.20 997.03 996.86 996.71 996.55 996.38 996.20 996.01 995.81 995.59 995.36 995.12 994.87 994.61 994.33 994.05 993.76 993.45
1007.63 1007.21 1006.76 1006.30 1005.82 1005.34 1004.85 1004.37 1003.88 1003.39 1002.89 1002.39 1001.89 1001.37 1000.85 1000.33 999.82 999.31 998.83 998.38 997.96 997.59 997.26 996.98 996.74 996.54 996.37 996.21 996.07 995.93 995.78 995.61 995.43 995.22 995.00 994.76 994.50 994.23 993.95 993.66 993.37 993.07 992.77 992.46
1007.45 1006.94 1006.42 1005.88 1005.34 1004.81 1004.28 1003.75 1003.23 1002.71 1002.18 1001.65 1001.12 1000.57 1000.03 999.48 998.94 998.42 997.93 997.47 997.05 996.68 996.36 996.10 995.87 995.69 995.55 995.41 995.29 995.16 995.02 994.86 994.67 994.45 994.20 993.93 993.63 993.32 993.01 992.68 992.36 992.04 991.73 991.42
Thickness
5444 5449 5445 5445 5449 5444 5438 5441 5441 5458 5463 5479 5477 5471 5469 5467 5466 5468 5470 5472 5474 5474 5475 5478 5480 5484 5487 5490 5493 5497 5500 5504 5508 5511 5514 5518 5522 5527 5531 5536 5540 5544 5547 5552
5435 5440 5435 5440 5451 5448 5446 5444 5442 5447 5459 5473 5468 5463 5459 5458 5457 5459 5461 5463 5464 5465 5466 5468 5470 5473 5477 5480 5483 5487 5491 5495 5498 5501 5504 5509 5513 5518 5522 5527 5531 5535 5540 5545
5424 5426 5421 5432 5452 5450 5445 5444 5441 5442 5457 5461 5456 5456 5454 5452 5450 5450 5452 5453 5455 5455 5456 5458 5459 5463 5466 5470 5473 5477 5481 5485 5488 5491 5494 5499 5504 5508 5513 5517 5522 5527 5533 5537
5409 5405 5409 5449 5452 5448 5443 5446 5442 5443 5448 5448 5447 5446 5444 5442 5441 5441 5443 5444 5445 5446 5447 5448 5450 5453 5456 5460 5463 5467 5470 5474 5477 5481 5484 5489 5494 5498 5502 5507 5513 5519 5525 5531
5399 5394 5409 5434 5441 5435 5429 5434 5440 5437 5440 5438 5436 5433 5435 5437 5435 5434 5435 5435 5435 5436 5437 5439 5441 5443 5446 5449 5452 5456 5459 5463 5466 5470 5474 5479 5483 5488 5493 5497 5503 5509 5516 5522
5394 5392 5402 5431 5437 5431 5424 5420 5434 5430 5429 5428 5424 5417 5426 5432 5429 5428 5427 5427 5427 5427 5428 5429 5432 5434 5436 5439 5442 5445 5449 5453 5457 5461 5464 5469 5474 5479 5483 5488 5494 5500 5508 5514
5391 5390 5403 5425 5424 5419 5407 5417 5428 5423 5420 5417 5412 5414 5419 5420 5419 5419 5418 5418 5419 5419 5419 5421 5423 5424 5426 5429 5432 5436 5440 5444 5447 5451 5455 5460 5465 5469 5473 5479 5485 5491 5499 5506
5383 5384 5402 5420 5409 5408 5413 5418 5417 5414 5412 5409 5408 5409 5409 5409 5409 5408 5408 5409 5409 5410 5412 5413 5414 5414 5417 5420 5423 5426 5430 5433 5438 5442 5447 5452 5455 5460 5464 5470 5476 5482 5489 5497
5393 5406 5415 5410 5410 5413 5410 5407 5407 5405 5404 5402 5401 5400 5400 5400 5399 5399 5399 5400 5400 5400 5402 5404 5404 5405 5406 5411 5413 5416 5419 5423 5427 5432 5437 5441 5445 5450 5455 5460 5466 5473 5480 5488
5382 5393 5401 5401 5401 5401 5399 5398 5399 5397 5395 5393 5391 5391 5390 5390 5390 5390 5391 5391 5392 5392 5393 5395 5397 5397 5398 5402 5404 5406 5409 5412 5417 5422 5427 5431 5435 5440 5445 5451 5456 5462 5469 5477
5375 5386 5389 5394 5394 5394 5393 5391 5389 5388 5386 5384 5382 5382 5381 5381 5381 5381 5383 5383 5383 5383 5384 5386 5388 5389 5390 5392 5394 5396 5399 5403 5407 5411 5416 5421 5425 5430 5435 5441 5447 5453 5461 5467
5380 5387 5383 5388 5392 5389 5385 5384 5382 5380 5379 5377 5374 5373 5372 5372 5372 5372 5373 5374 5374 5375 5376 5377 5378 5380 5381 5383 5384 5386 5390 5394 5398 5402 5406 5411 5415 5422 5428 5433 5439 5446 5452 5459
5385 5386 5381 5383 5383 5381 5377 5376 5374 5372 5370 5368 5367 5364 5363 5363 5364 5363 5364 5365 5366 5367 5367 5368 5369 5371 5373 5374 5375 5377 5380 5384 5388 5393 5397 5401 5406 5411 5418 5426 5432 5438 5445 5452
5373 5372 5370 5373 5371 5370 5367 5366 5364 5362 5360 5358 5357 5356 5355 5354 5354 5354 5355 5357 5357 5358 5358 5359 5360 5363 5364 5365 5367 5369 5372 5376 5379 5383 5387 5392 5396 5401 5406 5414 5422 5430 5437 5444
5362 5360 5361 5362 5360 5357 5355 5353 5351 5350 5349 5348 5347 5346 5346 5345 5346 5347 5347 5348 5348 5348 5349 5350 5352 5354 5355 5356 5358 5361 5363 5367 5370 5374 5378 5383 5388 5392 5398 5404 5411 5418 5426 5434
5351 5350 5348 5348 5347 5345 5343 5341 5340 5340 5339 5339 5337 5337 5336 5336 5337 5338 5338 5337 5338 5339 5340 5341 5344 5346 5347 5349 5350 5353 5355 5359 5363 5366 5370 5374 5379 5384 5389 5395 5401 5408 5415 5422
5339 5339 5338 5337 5336 5334 5332 5331 5329 5329 5329 5328 5328 5328 5327 5327 5327 5328 5328 5329 5329 5330 5332 5333 5336 5338 5339 5341 5342 5345 5347 5351 5355 5358 5362 5367 5371 5376 5381 5386 5393 5399 5405 5412
5329 5329 5328 5327 5325 5323 5322 5321 5319 5318 5318 5319 5318 5318 5317 5317 5318 5319 5320 5320 5320 5322 5324 5325 5327 5330 5332 5333 5335 5337 5340 5343 5346 5350 5354 5359 5363 5368 5373 5379 5385 5391 5398 5403
5317 5316 5315 5315 5313 5311 5310 5309 5308 5307 5307 5307 5307 5307 5307 5307 5308 5309 5310 5311 5312 5314 5316 5317 5321 5323 5324 5326 5329 5330 5332 5336 5339 5343 5347 5353 5357 5361 5366 5371 5377 5383 5389 5395
5306 5306 5304 5302 5302 5300 5299 5298 5297 5296 5296 5296 5296 5297 5297 5298 5299 5300 5301 5302 5303 5305 5308 5311 5313 5315 5317 5319 5322 5323 5326 5329 5333 5337 5342 5346 5350 5354 5359 5364 5369 5375 5380 5386
5294 5293 5292 5290 5290 5289 5288 5286 5285 5286 5286 5286 5287 5288 5288 5289 5289 5290 5292 5294 5296 5298 5301 5305 5306 5308 5310 5313 5316 5317 5319 5322 5326 5331 5335 5340 5344 5348 5352 5357 5363 5368 5374 5379
5282 5281 5280 5279 5278 5277 5276 5276 5275 5276 5277 5277 5278 5279 5279 5280 5281 5282 5284 5285 5288 5291 5294 5296 5298 5301 5305 5307 5309 5310 5313 5316 5320 5324 5329 5333 5338 5342 5347 5352 5357 5363 5368 5373
5271 5270 5269 5269 5268 5267 5267 5266 5266 5266 5267 5268 5268 5269 5270 5271 5272 5274 5276 5278 5280 5284 5286 5288 5292 5296 5299 5300 5301 5303 5306 5310 5314 5318 5322 5327 5332 5337 5342 5347 5353 5358 5363 5368
5261 5261 5260 5259 5258 5258 5258 5259 5258 5259 5258 5259 5260 5261 5261 5263 5264 5265 5267 5271 5274 5277 5279 5282 5286 5290 5292 5293 5294 5297 5300 5304 5308 5313 5317 5322 5327 5332 5338 5343 5349 5354 5359 5363
5253 5252 5251 5250 5250 5250 5250 5250 5250 5250 5251 5252 5252 5254 5254 5255 5257 5259 5260 5263 5267 5270 5272 5275 5279 5282 5284 5286 5288 5291 5295 5299 5304 5309 5313 5318 5323 5329 5334 5340 5345 5349 5354 5359
5246 5245 5244 5243 5242 5242 5242 5243 5243 5244 5245 5246 5247 5248 5249 5250 5251 5252 5255 5257 5259 5263 5265 5267 5270 5274 5276 5280 5283 5287 5291 5295 5299 5304 5309 5314 5319 5325 5331 5336 5341 5345 5350 5354
5239 5239 5238 5237 5237 5236 5236 5236 5236 5237 5238 5239 5240 5242 5242 5244 5245 5247 5249 5251 5254 5256 5259 5261 5264 5267 5271 5275 5279 5283 5287 5291 5296 5301 5306 5311 5316 5322 5327 5332 5337 5341 5346 5350